period_start,C,m1,H,J0,J1,J2,J3,J4,J5,JA,JB,JC,JD,JJ,JK,JN,#
2016-10-29 00:04:10,0.01,0.07,0.00,15.88,21.54,25.14,15.03,48.11,1018.56,2055.99,3520.60,3164.00,3586.00,599.74,611.68,3.02,0000 0000 0000 0000 000000
2016-10-29 00:09:12,0.01,0.07,0.00,15.87,21.53,25.16,15.03,48.26,1018.43,2055.99,3520.05,3164.00,3585.81,600.39,612.20,3.07,0000 0000 0000 0000 000000
2016-10-29 00:14:13,0.01,0.07,0.00,15.87,21.52,25.15,14.95,47.88,1018.51,2055.99,3520.00,3163.95,3585.19,599.64,611.48,3.12,0000 0000 0000 0000 000000
2016-10-29 00:19:15,0.02,0.07,0.00,15.87,21.52,25.12,14.99,47.82,1018.56,2056.00,3519.94,3163.51,3585.01,600.24,611.93,3.17,0000 0000 0000 0000 000000
2016-10-29 00:24:16,0.02,0.07,0.00,15.90,21.51,25.14,15.13,48.29,1018.47,2056.00,3519.25,3163.06,3584.96,600.53,612.24,3.22,0000 0000 0000 0000 000000
2016-10-29 00:29:18,0.01,0.07,0.00,15.89,21.50,25.13,15.06,48.08,1018.20,2056.01,3519.00,3163.03,3584.63,599.55,611.21,3.27,0000 0000 0000 0000 000000
2016-10-29 00:34:19,0.00,0.07,0.00,15.92,21.49,25.17,14.96,47.87,1018.09,2056.01,3518.96,3163.02,3584.04,599.03,610.63,3.32,0000 0000 0000 0000 000000
2016-10-29 00:39:21,0.01,0.07,0.00,15.98,21.49,25.10,15.10,48.31,1018.09,2056.03,3518.35,3162.99,3583.99,600.73,612.14,3.37,0000 0000 0000 0000 000000
2016-10-29 00:44:22,0.02,0.07,0.00,15.98,21.49,25.08,15.01,48.94,1018.07,2056.03,3518.01,3162.64,3583.69,600.21,611.61,3.42,0000 0000 0000 0000 000000
2016-10-29 00:49:23,0.02,0.07,0.00,15.89,21.48,25.07,14.96,48.41,1017.80,2056.05,3517.73,3162.04,3583.03,599.87,611.22,3.47,0000 0000 0000 0000 000000
2016-10-29 00:54:25,0.01,0.08,0.00,15.86,21.47,25.06,15.00,48.25,1017.86,2056.06,3517.04,3161.96,3582.92,600.11,611.46,3.52,0000 0000 0000 0000 000000
2016-10-29 00:59:26,0.03,0.08,0.00,15.90,21.47,25.10,15.01,48.02,1018.05,2056.10,3516.95,3161.46,3582.15,599.70,611.21,3.57,0000 0000 0000 0000 000000
2016-10-29 01:04:27,0.01,0.08,0.00,15.86,21.47,25.14,14.98,47.85,1018.09,2056.07,3516.27,3161.02,3582.00,599.32,611.01,3.62,0000 0000 0000 0000 000000
2016-10-29 01:09:29,0.01,0.08,0.00,15.88,21.47,25.06,14.99,48.34,1018.08,2056.15,3516.01,3161.00,3581.73,599.55,611.15,3.67,0000 0000 0000 0000 000000
2016-10-29 01:14:30,0.01,0.08,0.00,15.93,21.47,25.08,15.01,47.91,1018.08,2056.10,3515.74,3160.89,3581.04,599.44,610.91,3.72,0000 0000 0000 0000 000000
2016-10-29 01:19:31,0.04,0.08,0.00,15.90,21.46,25.07,15.07,48.33,1018.04,2056.19,3515.05,3160.16,3580.95,600.11,611.58,3.77,0000 0000 0000 0000 000000
2016-10-29 01:24:33,0.01,0.08,0.00,15.88,21.46,25.05,15.03,48.43,1018.02,2056.35,3514.86,3160.00,3580.25,600.07,611.63,3.82,0000 0000 0000 0000 000000
2016-10-29 01:29:34,0.03,0.08,0.00,15.90,21.45,25.05,15.18,48.67,1018.06,2056.46,3514.18,3159.86,3579.96,600.36,611.79,3.87,0000 0000 0000 0000 000000
2016-10-29 01:34:35,0.02,0.08,0.00,15.91,21.44,25.01,15.07,49.04,1018.00,2056.33,3513.93,3159.11,3579.29,600.37,611.87,3.92,0000 0000 0000 0000 000000
2016-10-29 01:39:36,-0.00,0.09,0.00,15.90,21.44,25.02,15.04,48.51,1017.95,2056.25,3513.15,3159.00,3578.98,600.01,611.44,3.97,0000 0000 0000 0000 000000
2016-10-29 01:44:37,0.04,0.09,0.00,15.91,21.44,24.99,15.04,48.80,1017.80,2056.48,3513.00,3158.95,3578.55,600.31,611.68,4.02,0000 0000 0000 0000 000000
2016-10-29 01:49:38,0.06,0.09,0.00,15.88,21.44,25.07,15.07,48.21,1017.73,2056.86,3512.42,3158.23,3578.00,599.91,611.28,4.07,0000 0000 0000 0000 000000
2016-10-29 01:54:39,0.01,0.09,0.00,15.89,21.44,25.02,14.95,48.32,1017.63,2056.85,3511.99,3157.94,3577.17,599.98,611.28,4.12,0000 0000 0000 0000 000000
2016-10-29 01:59:41,0.03,0.09,0.00,15.90,21.44,25.02,14.96,48.33,1017.66,2056.86,3511.47,3157.30,3576.92,599.70,610.83,4.17,0000 0000 0000 0000 000000
2016-10-29 02:04:42,0.01,0.09,0.00,15.90,21.43,25.05,14.99,48.64,1017.61,2056.86,3511.01,3157.01,3576.19,599.49,610.79,4.22,0000 0000 0000 0000 000000
2016-10-29 02:09:44,0.01,0.10,0.00,15.86,21.42,25.03,14.95,48.66,1017.60,2056.89,3510.76,3156.99,3576.00,599.01,610.26,4.27,0000 0000 0000 0000 000000
2016-10-29 02:14:45,0.03,0.10,0.00,15.84,21.42,25.02,14.94,48.77,1017.60,2056.86,3510.07,3156.52,3575.62,599.95,611.43,4.32,0000 0000 0000 0000 000000
2016-10-29 02:19:46,0.01,0.10,0.00,15.83,21.42,25.04,15.04,49.54,1017.60,2056.83,3509.91,3156.03,3575.03,600.08,611.51,4.37,0000 0000 0000 0000 000000
2016-10-29 02:24:47,0.03,0.10,0.00,15.82,21.42,25.05,15.00,48.95,1017.58,2056.91,3509.10,3155.94,3574.69,599.42,610.83,4.43,0000 0000 0000 0000 000000
2016-10-29 02:29:49,0.03,0.10,0.00,15.83,21.42,25.06,15.03,48.35,1017.47,2056.96,3508.85,3155.11,3574.02,600.16,611.50,4.48,0000 0000 0000 0000 000000
2016-10-29 02:34:50,0.02,0.10,0.00,15.87,21.41,25.07,15.00,48.57,1017.40,2056.96,3508.07,3154.97,3573.30,600.54,611.79,4.53,0000 0000 0000 0000 000000
2016-10-29 02:39:52,0.03,0.10,0.00,15.82,21.40,25.05,15.01,48.63,1017.17,2056.97,3507.71,3154.45,3572.95,600.34,611.37,4.58,0000 0000 0000 0000 000000
2016-10-29 02:44:53,0.02,0.11,0.00,15.82,21.40,24.99,15.05,48.77,1017.15,2056.97,3507.02,3154.01,3572.18,600.00,611.17,4.63,0000 0000 0000 0000 000000
2016-10-29 02:49:54,0.03,0.11,0.00,15.79,21.39,25.04,15.04,49.31,1017.14,2056.97,3506.49,3153.72,3571.93,600.25,611.41,4.68,0000 0000 0000 0000 000000
2016-10-29 02:54:55,0.02,0.11,0.00,15.79,21.39,25.04,14.96,49.03,1017.11,2056.98,3506.01,3153.06,3571.22,600.15,611.46,4.73,0000 0000 0000 0000 000000
2016-10-29 02:59:56,0.01,0.11,0.00,15.79,21.39,25.06,14.99,48.73,1017.11,2056.98,3505.54,3153.00,3570.92,599.16,610.46,4.78,0000 0000 0000 0000 000000
2016-10-29 03:04:58,0.03,0.11,0.00,15.82,21.39,25.04,15.04,48.97,1017.10,2056.99,3505.00,3152.57,3570.10,600.12,611.26,4.83,0000 0000 0000 0000 000000
2016-10-29 03:09:59,0.02,0.11,0.00,15.79,21.39,25.04,15.03,49.26,1017.03,2056.99,3504.54,3152.02,3569.82,600.18,611.34,4.88,0000 0000 0000 0000 000000
2016-10-29 03:15:00,0.03,0.11,0.00,15.79,21.38,25.03,15.09,49.02,1017.02,2056.99,3503.92,3151.65,3568.99,599.72,611.08,4.93,0000 0000 0000 0000 000000
2016-10-29 03:20:01,0.03,0.12,0.00,15.78,21.38,25.04,15.13,49.13,1016.94,2056.99,3503.13,3151.01,3568.13,600.36,611.63,4.98,0000 0000 0000 0000 000000
2016-10-29 03:25:02,0.04,0.12,0.00,15.77,21.37,25.06,15.01,49.08,1016.73,2056.99,3502.51,3150.45,3567.66,600.53,611.55,5.03,0000 0000 0000 0000 000000
2016-10-29 03:30:04,0.01,0.12,0.00,15.77,21.37,25.03,15.04,48.97,1016.64,2056.99,3501.96,3150.01,3566.94,600.07,610.98,5.08,0000 0000 0000 0000 000000
2016-10-29 03:35:05,0.05,0.12,0.00,15.76,21.37,25.03,15.06,49.32,1016.63,2056.99,3501.13,3149.40,3566.11,600.04,611.07,5.13,0000 0000 0000 0000 000000
2016-10-29 03:40:06,0.05,0.12,0.00,15.73,21.37,25.01,15.08,49.09,1016.66,2057.00,3500.50,3148.52,3565.43,600.63,611.64,5.18,0000 0000 0000 0000 000000
2016-10-29 03:45:07,0.03,0.12,0.00,15.69,21.36,24.99,14.88,48.76,1016.66,2057.00,3499.74,3147.89,3564.14,599.37,610.50,5.23,0000 0000 0000 0000 000000
2016-10-29 03:50:08,0.03,0.13,0.00,15.69,21.35,24.99,15.08,49.17,1016.64,2057.01,3499.03,3147.18,3563.66,599.54,610.67,5.28,0000 0000 0000 0000 000000
2016-10-29 03:55:10,0.02,0.13,0.00,15.71,21.34,24.99,15.04,49.51,1016.63,2057.00,3498.61,3146.86,3562.86,599.97,611.20,5.33,0000 0000 0000 0000 000000
2016-10-29 04:00:11,0.03,0.13,0.00,15.73,21.34,24.98,14.99,49.56,1016.62,2057.00,3497.98,3146.05,3562.05,600.13,611.04,5.38,0000 0000 0000 0000 000000
2016-10-29 04:05:12,0.03,0.13,0.00,15.75,21.34,25.01,15.09,49.75,1016.62,2057.01,3497.19,3145.92,3561.49,600.23,611.24,5.43,0000 0000 0000 0000 000000
2016-10-29 04:10:14,0.04,0.13,0.00,15.76,21.33,24.98,15.03,49.52,1016.63,2057.01,3496.70,3145.22,3560.69,599.67,610.64,5.48,0000 0000 0000 0000 000000
2016-10-29 04:15:15,0.03,0.13,0.00,15.70,21.32,24.98,15.00,49.33,1016.62,2057.01,3496.02,3144.49,3560.00,599.94,611.12,5.53,0000 0000 0000 0000 000000
2016-10-29 04:20:16,0.02,0.14,0.00,15.74,21.32,24.98,15.00,49.14,1016.63,2057.02,3495.62,3144.02,3559.33,599.17,610.24,5.58,0000 0000 0000 0000 000000
2016-10-29 04:25:18,0.00,0.14,0.00,15.74,21.32,24.97,14.89,49.25,1016.63,2057.01,3495.04,3143.98,3559.00,599.08,610.07,5.63,0000 0000 0000 0000 000000
2016-10-29 04:30:19,0.03,0.14,0.00,15.68,21.32,24.99,15.10,49.42,1016.62,2057.02,3494.85,3143.58,3558.57,600.31,611.44,5.68,0000 0000 0000 0000 000000
2016-10-29 04:35:20,0.02,0.14,0.00,15.66,21.32,24.95,14.93,49.33,1016.64,2057.05,3494.13,3143.02,3558.01,599.26,610.34,5.73,0000 0000 0000 0000 000000
2016-10-29 04:40:22,0.02,0.14,0.00,15.73,21.31,24.99,15.05,49.48,1016.65,2057.02,3493.79,3142.92,3557.44,599.98,611.12,5.78,0000 0000 0000 0000 000000
2016-10-29 04:45:23,0.03,0.14,0.00,15.78,21.30,24.97,15.04,49.23,1016.74,2057.03,3493.06,3142.22,3557.00,599.61,610.62,5.83,0000 0000 0000 0000 000000
2016-10-29 04:50:24,0.01,0.14,0.00,15.77,21.29,24.90,14.98,49.43,1016.68,2057.02,3492.99,3142.01,3556.72,599.67,610.66,5.88,0000 0000 0000 0000 000000
2016-10-29 04:55:26,0.01,0.14,0.00,15.77,21.29,24.92,15.18,49.77,1016.64,2057.02,3492.60,3141.99,3556.06,600.06,611.07,5.93,0000 0000 0000 0000 000000
2016-10-29 05:00:27,0.02,0.14,0.00,15.73,21.29,24.91,15.03,49.44,1016.65,2057.05,3492.01,3141.72,3555.89,599.97,611.09,5.98,0000 0000 0000 0000 000000
2016-10-29 05:05:28,0.03,0.15,0.00,15.76,21.29,24.94,15.01,49.42,1016.63,2057.06,3491.73,3141.06,3555.15,600.73,611.73,6.03,0000 0000 0000 0000 000000
2016-10-29 05:10:30,0.08,0.15,0.00,15.82,21.29,24.96,15.09,49.42,1016.62,2057.04,3490.49,3140.12,3553.95,599.80,610.67,6.08,0000 0000 0000 0000 000000
2016-10-29 05:15:31,0.06,0.15,0.00,15.70,21.29,24.96,15.05,49.62,1016.61,2057.04,3489.14,3138.35,3552.10,600.08,611.32,6.13,0000 0000 0000 0000 000000
2016-10-29 05:20:33,0.02,0.15,0.00,15.70,21.29,24.95,15.03,49.52,1016.61,2057.07,3488.79,3137.97,3551.68,600.02,611.12,6.18,0000 0000 0000 0000 000000
2016-10-29 05:25:34,0.04,0.16,0.00,15.71,21.29,24.93,14.96,49.21,1016.61,2057.09,3488.03,3137.18,3550.98,599.61,610.68,6.23,0000 0000 0000 0000 000000
2016-10-29 05:30:35,0.02,0.16,0.00,15.74,21.29,24.94,15.02,49.07,1016.59,2057.14,3487.75,3137.01,3550.22,599.62,610.82,6.28,0000 0000 0000 0000 000000
2016-10-29 05:35:37,0.02,0.16,0.00,15.78,21.28,24.94,15.14,49.57,1016.56,2057.11,3487.05,3136.63,3549.83,600.64,611.44,6.33,0000 0000 0000 0000 000000
2016-10-29 05:40:38,0.03,0.16,0.00,15.78,21.28,24.94,14.94,49.04,1016.52,2057.13,3486.48,3136.02,3549.06,599.72,610.59,6.38,0000 0000 0000 0000 000000
2016-10-29 05:45:39,0.02,0.16,0.00,15.75,21.28,24.91,15.07,49.02,1016.56,2057.31,3486.01,3135.95,3548.83,599.67,610.75,6.43,0000 0000 0000 0000 000000
2016-10-29 05:50:40,0.06,0.17,0.00,15.75,21.28,24.92,15.06,49.47,1016.60,2057.45,3485.75,3135.30,3548.05,600.56,611.64,6.48,0000 0000 0000 0000 000000
2016-10-29 05:55:41,0.03,0.17,0.00,15.73,21.28,24.94,15.07,48.93,1016.60,2057.59,3484.96,3134.87,3547.55,600.46,611.77,6.53,0000 0000 0000 0000 000000
2016-10-29 06:00:42,0.04,0.17,0.00,15.75,21.27,24.94,14.91,49.00,1016.58,2057.44,3484.07,3134.05,3546.34,599.31,610.25,6.58,0000 0000 0000 0000 000000
2016-10-29 06:05:44,0.02,0.17,0.00,15.71,21.27,24.95,15.11,49.35,1016.58,2057.61,3483.89,3133.96,3545.99,601.08,612.16,6.63,0000 0000 0000 0000 000000
2016-10-29 06:10:44,0.02,0.17,0.00,15.73,21.27,24.93,15.12,49.76,1016.58,2057.44,3483.13,3133.35,3545.50,600.00,611.02,6.68,0000 0000 0000 0000 000000
2016-10-29 06:15:45,0.01,0.17,0.00,15.75,21.27,24.91,15.01,49.22,1016.60,2057.45,3482.93,3133.02,3545.01,599.79,610.70,6.73,0000 0000 0000 0000 000000
2016-10-29 06:20:46,0.03,0.17,0.00,15.77,21.27,24.92,15.01,49.22,1016.59,2057.56,3482.22,3132.97,3544.71,599.59,610.31,6.78,0000 0000 0000 0000 000000
2016-10-29 06:25:48,0.04,0.18,0.00,15.79,21.27,24.93,15.05,49.11,1016.60,2057.64,3481.97,3132.25,3544.03,599.17,610.06,6.84,0000 0000 0000 0000 000000
2016-10-29 06:30:49,0.01,0.18,0.00,15.78,21.27,24.90,15.02,49.17,1016.60,2057.54,3481.18,3132.00,3543.68,599.65,610.61,6.89,0000 0000 0000 0000 000000
2016-10-29 06:35:50,0.03,0.18,0.00,15.78,21.27,24.90,15.02,49.27,1016.62,2057.41,3480.60,3131.30,3542.85,599.92,610.68,6.94,0000 0000 0000 0000 000000
2016-10-29 06:40:51,0.01,0.18,0.00,15.74,21.27,24.89,15.04,49.65,1016.57,2057.39,3480.03,3130.91,3542.08,599.89,610.85,6.99,0000 0000 0000 0000 000000
2016-10-29 06:45:52,0.05,0.18,0.00,15.76,21.27,24.88,15.06,49.60,1016.59,2057.70,3479.76,3130.34,3541.88,600.09,611.08,7.04,0000 0000 0000 0000 000000
2016-10-29 06:50:53,0.02,0.18,0.00,15.78,21.27,24.91,15.00,49.60,1016.58,2057.76,3479.08,3130.01,3541.12,599.87,610.77,7.09,0000 0000 0000 0000 000000
2016-10-29 06:55:55,-0.00,0.18,0.00,15.77,21.27,24.90,14.99,49.59,1016.54,2057.54,3478.65,3129.61,3540.68,599.76,610.67,7.14,0000 0000 0000 0000 000000
2016-10-29 07:00:56,0.04,0.19,0.00,15.78,21.27,24.88,15.03,49.69,1016.58,2057.60,3478.03,3129.04,3540.05,600.40,611.36,7.19,0000 0000 0000 0000 000000
2016-10-29 07:05:57,-0.03,0.19,0.00,15.70,21.27,24.86,15.07,49.69,1016.60,2057.37,3477.89,3128.99,3539.93,599.88,611.05,7.24,0000 0000 0000 0000 000000
2016-10-29 07:10:58,0.04,0.19,0.00,15.73,21.27,24.89,15.10,49.82,1016.58,2057.45,3477.18,3128.93,3539.28,600.04,611.06,7.29,0000 0000 0000 0000 000000
2016-10-29 07:15:59,0.03,0.19,0.00,15.70,21.27,24.90,15.01,49.39,1016.61,2057.59,3477.01,3128.25,3539.01,600.12,611.20,7.34,0000 0000 0000 0000 000000
2016-10-29 07:21:01,0.02,0.19,0.00,15.76,21.27,24.88,15.08,49.76,1016.62,2057.70,3476.86,3128.01,3538.88,600.50,611.53,7.39,0000 0000 0000 0000 000000
2016-10-29 07:26:02,0.03,0.19,0.00,15.78,21.27,24.89,14.99,49.79,1016.60,2057.78,3476.10,3127.99,3538.12,600.15,611.10,7.44,0000 0000 0000 0000 000000
2016-10-29 07:31:03,0.05,0.19,0.00,15.73,21.27,24.89,15.02,49.97,1016.60,2057.66,3475.58,3127.02,3537.36,599.99,611.05,7.49,0000 0000 0000 0000 000000
2016-10-29 07:36:05,0.04,0.20,0.00,15.76,21.27,24.90,15.05,49.88,1016.61,2057.53,3474.11,3125.76,3535.94,600.07,611.12,7.54,0000 0000 0000 0000 000000
2016-10-29 07:41:06,0.03,0.20,0.00,15.75,21.27,24.91,14.99,49.96,1016.63,2057.59,3473.88,3125.09,3535.20,600.02,611.09,7.59,0000 0000 0000 0000 000000
2016-10-29 07:46:07,0.03,0.20,0.00,15.69,21.27,24.92,15.01,49.80,1016.62,2057.66,3473.23,3125.00,3534.90,599.49,610.60,7.64,0000 0000 0000 0000 000000
2016-10-29 07:51:08,0.04,0.20,0.00,15.70,21.26,24.89,15.06,49.95,1016.62,2057.82,3472.95,3124.60,3534.15,600.14,611.23,7.69,0000 0000 0000 0000 000000
2016-10-29 07:56:10,0.04,0.20,0.00,15.73,21.27,24.93,15.04,50.04,1016.61,2057.80,3472.19,3123.65,3533.57,600.01,610.99,7.74,0000 0000 0000 0000 000000
2016-10-29 08:01:11,0.02,0.20,0.00,15.77,21.26,24.91,14.92,49.85,1016.62,2057.62,3471.41,3123.02,3532.63,599.97,610.89,7.79,0000 0000 0000 0000 000000
2016-10-29 08:06:12,0.00,0.21,0.00,15.80,21.26,24.89,14.99,49.67,1016.63,2057.58,3471.00,3122.94,3532.02,600.17,611.06,7.84,0000 0000 0000 0000 000000
2016-10-29 08:11:14,0.04,0.21,0.00,15.80,21.26,24.88,15.07,49.67,1016.77,2057.65,3470.71,3122.23,3531.80,600.15,611.08,7.89,0000 0000 0000 0000 000000
2016-10-29 08:16:15,0.03,0.21,0.00,15.77,21.26,24.89,15.03,49.35,1016.84,2057.63,3470.06,3122.00,3531.08,599.87,610.84,7.94,0000 0000 0000 0000 000000
2016-10-29 08:21:16,-0.00,0.21,0.00,15.76,21.26,24.87,15.00,49.15,1017.00,2057.77,3469.99,3121.99,3530.98,600.16,611.39,7.99,0000 0000 0000 0000 000000
2016-10-29 08:26:17,0.02,0.21,0.00,15.72,21.26,24.88,14.86,49.20,1016.95,2057.69,3469.47,3121.65,3530.46,599.30,610.54,8.04,0000 0000 0000 0000 000000
2016-10-29 08:31:19,0.01,0.21,0.00,15.77,21.26,24.89,15.04,49.51,1016.78,2057.66,3469.02,3121.07,3530.01,599.86,610.92,8.09,0000 0000 0000 0000 000000
2016-10-29 08:36:20,0.02,0.21,0.00,15.77,21.27,24.91,15.05,49.81,1016.65,2057.73,3468.89,3121.00,3529.94,600.31,611.36,8.14,0000 0000 0000 0000 000000
2016-10-29 08:41:22,0.02,0.21,0.00,15.77,21.27,24.93,15.05,49.65,1016.66,2057.78,3468.17,3120.98,3529.23,600.48,611.53,8.19,0000 0000 0000 0000 000000
2016-10-29 08:46:23,-0.00,0.21,0.00,15.79,21.27,24.90,15.01,49.28,1016.70,2057.57,3467.99,3120.33,3528.99,600.27,611.31,8.24,0000 0000 0000 0000 000000
2016-10-29 08:51:24,0.03,0.21,0.00,15.82,21.27,24.91,15.01,49.44,1016.80,2057.54,3467.40,3120.00,3528.44,599.77,610.72,8.29,0000 0000 0000 0000 000000
2016-10-29 08:56:25,0.01,0.22,0.00,15.82,21.27,24.88,15.01,49.68,1016.68,2057.57,3467.00,3119.91,3528.01,600.10,611.07,8.34,0000 0000 0000 0000 000000
2016-10-29 09:01:26,0.05,0.22,0.00,15.77,21.27,24.89,15.03,49.57,1016.64,2057.54,3466.32,3119.13,3527.46,600.13,611.27,8.39,0000 0000 0000 0000 000000
2016-10-29 09:06:27,-0.00,0.22,0.00,15.77,21.27,24.89,15.06,49.68,1016.62,2057.52,3465.97,3118.97,3526.96,600.09,611.03,8.44,0000 0000 0000 0000 000000
2016-10-29 09:11:29,0.04,0.22,0.00,15.81,21.27,24.94,15.01,49.40,1016.61,2057.45,3465.15,3118.18,3526.14,600.21,611.07,8.49,0000 0000 0000 0000 000000
2016-10-29 09:16:30,0.03,0.22,0.00,15.81,21.27,24.94,15.04,49.56,1016.60,2057.76,3464.98,3117.99,3525.98,599.92,610.59,8.54,0000 0000 0000 0000 000000
2016-10-29 09:21:31,0.03,0.22,0.00,15.84,21.27,24.93,14.98,49.23,1016.58,2057.72,3464.42,3117.65,3525.26,600.04,610.84,8.59,0000 0000 0000 0000 000000
2016-10-29 09:26:33,0.01,0.22,0.00,15.80,21.27,24.94,14.99,49.42,1016.49,2057.64,3464.01,3117.02,3524.95,600.03,610.86,8.64,0000 0000 0000 0000 000000
2016-10-29 09:31:34,0.01,0.22,0.00,15.80,21.27,24.95,15.05,49.71,1016.51,2057.43,3463.47,3116.93,3524.18,600.06,610.88,8.69,0000 0000 0000 0000 000000
2016-10-29 09:36:35,0.03,0.23,0.00,15.76,21.27,24.96,15.02,49.46,1016.58,2057.33,3462.99,3116.26,3523.77,599.89,610.83,8.74,0000 0000 0000 0000 000000
2016-10-29 09:41:36,0.03,0.23,0.00,15.78,21.27,24.97,14.93,49.22,1016.44,2057.39,3462.41,3115.95,3523.04,598.81,609.63,8.79,0000 0000 0000 0000 000000
2016-10-29 09:46:38,0.07,0.23,0.00,15.79,21.27,24.95,14.99,49.31,1016.27,2057.29,3461.40,3114.72,3521.99,600.23,610.95,8.84,0000 0000 0000 0000 000000
2016-10-29 09:51:39,0.04,0.23,0.00,15.77,21.27,24.95,14.92,49.25,1016.26,2057.51,3460.78,3114.02,3521.02,599.28,609.91,8.89,0000 0000 0000 0000 000000
2016-10-29 09:56:40,0.02,0.23,0.00,15.72,21.27,24.95,14.91,49.19,1016.36,2057.33,3459.99,3113.54,3520.32,599.49,610.38,8.94,0000 0000 0000 0000 000000
2016-10-29 10:01:41,0.01,0.23,0.00,15.76,21.27,24.95,14.99,48.93,1016.46,2057.14,3459.22,3113.01,3519.80,599.88,610.61,8.99,0000 0000 0000 0000 000000
2016-10-29 10:06:43,0.04,0.24,0.00,15.79,21.27,24.91,15.04,49.02,1016.46,2057.20,3458.67,3112.50,3519.04,599.76,610.68,9.04,0000 0000 0000 0000 000000
2016-10-29 10:11:44,0.02,0.24,0.00,15.79,21.27,24.93,14.93,48.79,1016.45,2057.20,3458.02,3112.03,3518.63,599.97,610.77,9.09,0000 0000 0000 0000 000000
2016-10-29 10:16:45,0.02,0.24,0.00,15.75,21.27,24.93,15.04,49.60,1016.50,2057.10,3457.32,3111.70,3517.99,600.08,611.03,9.14,0000 0000 0000 0000 000000
2016-10-29 10:21:46,0.03,0.24,0.00,15.72,21.27,24.90,14.94,49.13,1016.56,2057.07,3456.90,3111.06,3517.24,599.79,610.85,9.19,0000 0000 0000 0000 000000
2016-10-29 10:26:47,0.08,0.24,0.00,15.75,21.27,24.93,15.05,49.17,1016.48,2057.09,3455.68,3110.02,3515.99,600.10,611.02,9.25,0000 0000 0000 0000 000000
2016-10-29 10:31:49,0.04,0.25,0.00,15.74,21.27,24.93,14.96,49.33,1016.52,2057.10,3454.65,3108.94,3514.59,600.40,611.39,9.30,0000 0000 0000 0000 000000
2016-10-29 10:36:50,0.08,0.25,0.00,15.72,21.27,24.90,14.90,49.05,1016.49,2057.13,3453.63,3107.72,3513.41,599.52,610.31,9.35,0000 0000 0000 0000 000000
2016-10-29 10:41:51,0.08,0.26,0.00,15.69,21.26,24.94,15.09,49.47,1016.49,2057.11,3452.07,3105.92,3511.39,600.02,611.13,9.40,0000 0000 0000 0000 000000
2016-10-29 10:46:52,0.05,0.26,0.00,15.67,21.25,24.92,15.11,49.48,1016.36,2057.10,3451.15,3105.04,3510.40,600.02,610.98,9.45,0000 0000 0000 0000 000000
2016-10-29 10:51:53,0.04,0.26,0.00,15.67,21.25,24.93,15.10,49.31,1016.52,2057.06,3450.34,3104.46,3509.51,599.87,610.97,9.50,0000 0000 0000 0000 000000
2016-10-29 10:56:54,0.03,0.26,0.00,15.65,21.24,24.88,14.98,49.58,1016.38,2057.11,3449.61,3103.97,3508.89,599.66,610.73,9.55,0000 0000 0000 0000 000000
2016-10-29 11:01:56,0.05,0.27,0.00,15.69,21.24,24.94,14.97,49.46,1016.19,2057.20,3448.70,3103.15,3507.93,599.82,610.97,9.60,0000 0000 0000 0000 000000
2016-10-29 11:06:57,0.06,0.27,0.00,15.68,21.24,24.90,15.02,49.62,1016.15,2057.37,3447.92,3102.38,3506.98,599.55,610.39,9.65,0000 0000 0000 0000 000000
2016-10-29 11:11:59,0.02,0.27,0.00,15.62,21.24,24.91,14.99,49.44,1016.14,2057.26,3447.03,3101.63,3506.05,599.47,610.50,9.70,0000 0000 0000 0000 000000
2016-10-29 11:17:00,0.08,0.27,0.00,15.62,21.23,24.91,14.92,49.17,1016.15,2057.38,3446.10,3100.63,3505.04,599.69,610.71,9.75,0000 0000 0000 0000 000000
2016-10-29 11:22:01,0.06,0.28,0.00,15.62,21.22,24.89,15.04,49.38,1016.20,2057.59,3445.18,3100.04,3504.09,600.64,611.66,9.80,0000 0000 0000 0000 000000
2016-10-29 11:27:03,0.05,0.28,0.00,15.58,21.22,24.88,15.07,49.63,1016.25,2057.83,3444.73,3099.61,3503.51,599.76,610.97,9.85,0000 0000 0000 0000 000000
2016-10-29 11:32:04,0.01,0.28,0.00,15.61,21.22,24.89,15.00,49.50,1016.42,2057.76,3444.02,3099.01,3502.89,600.01,611.07,9.90,0000 0000 0000 0000 000000
2016-10-29 11:37:05,0.02,0.28,0.00,15.56,21.21,24.88,15.06,49.60,1016.51,2057.63,3443.21,3098.41,3502.00,600.49,611.68,9.95,0000 0000 0000 0000 000000
2016-10-29 11:42:06,0.03,0.28,0.00,15.56,21.19,24.87,15.13,49.73,1016.59,2057.54,3442.51,3097.99,3501.19,600.31,611.64,10.00,0000 0000 0000 0000 000000
2016-10-29 11:47:08,0.08,0.29,0.00,15.54,21.19,24.86,15.12,49.58,1016.53,2057.40,3441.30,3096.55,3499.66,600.24,611.63,10.05,0000 0000 0000 0000 000000
2016-10-29 11:52:09,0.05,0.29,0.00,15.60,21.19,24.86,15.00,49.68,1016.36,2057.58,3440.42,3095.81,3498.79,599.57,610.68,10.10,0000 0000 0000 0000 000000
2016-10-29 11:57:10,0.04,0.29,0.00,15.56,21.18,24.85,15.06,49.62,1016.38,2057.63,3439.72,3095.04,3497.93,599.88,611.08,10.15,0000 0000 0000 0000 000000
2016-10-29 12:02:11,0.06,0.29,0.00,15.60,21.17,24.87,15.03,49.82,1016.27,2057.80,3439.01,3094.46,3497.10,600.24,611.34,10.20,0000 0000 0000 0000 000000
2016-10-29 12:07:12,0.03,0.30,0.00,15.53,21.17,24.83,15.08,49.85,1016.18,2057.90,3438.30,3094.02,3496.70,600.75,611.96,10.25,0000 0000 0000 0000 000000
2016-10-29 12:12:13,0.03,0.30,0.00,15.57,21.16,24.84,15.06,49.84,1016.14,2057.93,3437.66,3093.71,3496.00,600.04,611.12,10.30,0000 0000 0000 0000 000000
2016-10-29 12:17:15,0.03,0.30,0.00,15.57,21.15,24.82,15.00,49.29,1016.16,2057.95,3436.87,3092.86,3495.03,599.69,610.81,10.35,0000 0000 0000 0000 000000
2016-10-29 12:22:16,0.10,0.31,0.00,15.54,21.14,24.85,15.07,49.83,1016.15,2057.94,3435.54,3091.22,3493.29,600.50,611.39,10.40,0000 0000 0000 0000 000000
2016-10-29 12:27:17,0.01,0.31,0.00,15.52,21.14,24.81,15.01,49.36,1016.25,2057.97,3434.94,3090.95,3492.70,600.28,611.58,10.45,0000 0000 0000 0000 000000
2016-10-29 12:32:18,0.04,0.31,0.00,15.51,21.13,24.78,15.03,48.90,1016.21,2057.98,3434.19,3090.27,3492.02,600.12,611.38,10.50,0000 0000 0000 0000 000000
2016-10-29 12:37:20,0.01,0.31,0.00,15.50,21.12,24.80,15.01,49.13,1016.14,2057.96,3433.75,3089.99,3491.53,600.36,611.61,10.55,0000 0000 0000 0000 000000
2016-10-29 12:42:21,0.04,0.31,0.00,15.48,21.12,24.77,15.14,49.62,1016.10,2057.97,3432.95,3089.32,3490.75,600.53,611.80,10.60,0000 0000 0000 0000 000000
2016-10-29 12:47:22,0.04,0.31,0.00,15.43,21.11,24.77,15.08,49.44,1016.13,2057.98,3432.07,3088.67,3489.88,600.02,611.55,10.65,0000 0000 0000 0000 000000
2016-10-29 12:52:23,0.03,0.32,0.00,15.44,21.09,24.75,15.11,49.77,1016.13,2057.98,3431.21,3088.02,3489.03,600.38,611.74,10.70,0000 0000 0000 0000 000000
2016-10-29 12:57:25,0.05,0.32,0.00,15.48,21.09,24.75,14.98,49.30,1016.13,2057.99,3430.38,3087.32,3488.16,599.86,611.17,10.75,0000 0000 0000 0000 000000
2016-10-29 13:02:26,0.03,0.32,0.00,15.38,21.09,24.72,14.94,49.55,1016.12,2057.99,3429.58,3086.85,3487.38,599.23,611.07,10.80,0000 0000 0000 0000 000000